BRAC ONNESHA (42823 NORAD) Tracking and Keplerian Element Data

This shows tracking and keplerian element data for the satellite.

Feedback or suggestion? Click here.




ElementValue
Catalog42823
NameBRAC ONNESHA
Epoch Orbit8235
Epoch Day349.47456667
Epoch Year2018
RAAN152.8129
Inclination51.6295
Eccentricity0.0004749
Argument of Perigee172.5118
Mean Anonmoly187.5955
Mean Motion15.78418819
Decay Rate0.00042877
L11 42823U 98067MX 18349.47456667 .00042877 00000-0 24497-3 0 9996
L22 42823 51.6295 152.8129 0004749 172.5118 187.5955 15.78418819 82356

Live tracking and technical data element details for BRAC ONNESHA (NORAD 42823). BRAC ONNESHA can be tracked NOW for your location showing map with azimuth and elevation plus other details from your city location.

Track the satellite on the map from your city or location and see movement details for azimuth, elevation, latitude, longitude, range, height, and movement on the map or in text.







IsCatalogInMostPopularTable: catalog: 42823, numindb: 132
Update: records affected: 1



GetName: 42823 BRAC ONNESHA

Hit Count: updated at: Sun, 16 Dec 2018 10:17:12 GMT